RH
12 11 11 11 12 15 17 16 16 19 20 22 24 26 27 28 30 39 39 39 42 45 42 37 31 28 27 24 22 20 20 19 17 14 14 13 13 12 16 19 20 21 22 23 23 25 26 26 26
14 14 12 12 17 18 18 17 17 19 20 23 24 24 25 26 27 26 29 34 41 44 44 39 34 29 26 24 23 22 21 21 20 18 16 15 14 13 15 18 20 21 22 22 24 26 25 26 27
15 16 15 18 23 22 19 17 18 19 20 20 21 22 23 27 25 21 23 28 32 39 43 39 35 30 27 23 23 23 22 21 21 21 19 18 16 15 14 17 19 20 21 21 22 24 26 26 27
16 16 17 21 23 23 19 18 17 19 21 21 22 23 27 27 25 24 25 28 29 38 40 36 35 33 28 25 24 24 23 22 22 22 21 21 20 18 17 19 20 20 19 18 19 21 23 22 23
16 16 20 24 24 24 22 20 19 21 21 21 23 27 27 26 24 23 23 27 29 32 36 42 38 34 29 27 26 25 25 23 22 22 23 23 23 22 21 22 23 22 20 18 19 22 22 22 23
17 17 22 27 26 24 22 22 21 21 23 24 26 29 29 28 29 30 28 27 28 32 37 40 44 47 43 33 29 28 27 25 24 23 23 24 24 24 24 25 27 27 23 20 21 21 21 22 23
20 20 23 26 28 27 26 24 24 24 25 26 28 29 29 28 31 33 31 31 32 32 33 37 40 43 47 43 38 33 30 29 27 25 24 25 25 25 25 27 29 30 27 23 24 24 23 23 23
22 22 23 24 28 28 29 28 26 27 30 30 29 29 29 31 31 29 31 31 32 35 38 37 39 44 48 48 46 41 35 33 31 30 28 28 27 27 28 29 30 32 31 27 26 27 26 26 27
25 26 27 25 24 25 27 29 30 28 28 29 29 30 32 31 29 27 28 31 32 34 36 41 43 46 46 50 51 48 44 41 36 34 34 34 32 29 29 30 32 33 34 33 28 28 28 29 28
26 29 29 27 25 25 24 25 27 29 29 30 31 32 31 30 28 28 27 29 31 33 34 38 43 47 49 51 50 54 53 48 47 47 42 37 38 38 35 33 34 35 36 36 33 30 30 31 30
26 27 28 28 26 27 28 28 29 30 31 31 31 32 31 29 28 28 29 30 32 34 35 36 42 44 52 57 57 58 58 60 56 55 57 50 39 41 42 40 38 37 38 39 39 35 33 33 33
27 27 27 27 27 26 27 27 27 29 29 28 29 30 30 29 31 32 32 32 32 32 33 36 38 42 46 49 52 61 65 65 70 72 71 65 58 45 44 46 46 43 40 40 42 42 39 37 37
29 28 27 27 27 28 27 26 26 24 25 27 29 30 30 31 31 31 30 29 30 31 31 31 32 35 39 44 45 49 56 72 75 77 82 83 72 64 56 49 51 52 49 44 45 46 45 42 40
30 29 29 28 28 29 27 26 26 26 26 28 28 30 31 31 32 31 30 29 29 28 27 26 27 27 28 30 34 36 44 51 66 75 76 81 88 76 68 64 58 58 59 53 47 47 50 50 46
31 29 30 31 30 29 27 27 26 27 27 30 33 33 32 32 30 29 29 30 29 28 26 24 23 21 21 22 23 25 29 34 44 50 60 74 80 86 86 73 67 60 58 62 63 58 53 52 53
30 30 33 31 30 30 29 28 27 29 28 33 36 34 32 31 30 30 30 30 29 26 24 23 21 17 15 14 14 15 18 22 26 32 43 48 58 73 83 89 77 78 70 63 65 64 64 56 54
33 35 35 34 32 30 30 31 29 29 29 34 37 37 36 34 32 29 27 25 25 23 22 21 19 16 15 14 13 12 12 12 13 19 24 32 41 48 59 77 89 87 85 76 74 72 67 63 61
39 39 35 35 34 33 32 33 36 36 34 35 37 37 35 33 31 31 28 25 23 22 21 19 18 17 16 16 15 14 13 12 11 12 13 16 24 31 40 52 75 91 88 85 80 81 80 67 64
36 33 34 31 29 30 32 33 36 36 36 37 37 37 36 36 36 32 27 25 24 23 22 22 20 19 18 17 16 15 14 13 11 11 10 13 15 18 26 33 49 72 86 92 87 87 86 79 75
32 31 34 31 28 27 27 29 35 39 40 40 40 41 41 40 35 32 30 28 25 24 24 22 21 19 18 18 17 15 14 14 13 12 11 11 12 14 17 22 28 47 67 78 80 87 93 87 84
28 31 33 34 34 30 28 28 38 41 43 43 43 41 38 37 35 34 34 33 30 27 25 24 22 20 19 18 17 15 13 12 11 10 11 11 11 12 14 16 19 25 38 57 69 70 80 91 92
28 32 33 34 34 35 33 33 39 41 41 40 38 37 36 36 36 35 35 33 31 29 29 27 25 22 20 21 19 17 16 14 13 12 12 12 13 13 13 14 16 18 24 31 47 57 62 72 84
29 33 33 32 33 32 29 29 28 40 42 40 39 37 38 37 36 36 36 35 35 34 33 31 28 26 24 23 22 20 19 18 15 15 15 15 15 15 16 17 16 19 22 24 28 35 46 58 76
33 33 36 35 32 29 26 26 22 43 38 38 38 39 38 41 43 44 44 43 40 37 33 30 29 29 28 28 27 26 23 20 18 18 18 18 19 19 19 21 21 21 23 26 27 28 36 46 67
37 36 38 35 35 32 26 24 22 36 38 41 43 43 46 48 49 47 45 43 40 38 36 35 33 32 31 31 31 26 21 21 24 25 25 24 24 25 26 27 28 27 28 30 29 29 29 37 49
39 36 41 37 40 36 31 33 39 42 42 46 52 53 53 51 51 50 46 43 42 42 40 36 34 34 34 29 24 22 23 23 24 26 27 30 31 34 37 37 37 37 38 35 34 33 30 30 37
38 38 36 41 42 41 37 50 48 49 53 57 56 54 54 55 54 50 49 47 44 40 38 37 33 30 26 21 22 24 26 28 29 33 39 43 48 51 52 53 52 51 49 46 38 35 35 36 33
33 32 37 41 44 44 44 56 51 55 55 54 55 54 54 54 53 52 51 49 44 37 34 33 30 22 22 23 25 26 28 31 34 44 54 59 64 67 69 70 68 68 62 55 50 43 42 46 44
30 32 35 40 48 51 56 48 48 49 52 54 56 56 57 57 56 54 50 46 42 34 30 24 25 25 25 27 29 30 30 34 46 54 60 71 76 79 79 83 78 79 75 70 62 56 53 55 51
33 36 39 51 50 66 67 45 48 49 51 55 58 58 59 60 58 55 50 47 38 25 24 26 28 27 29 32 33 32 36 48 51 51 60 75 85 87 92 92 92 92 90 86 84 75 65 54 50